| time (UTC) | temp C | wind direction | speed KPH | gust KPH | rain 1hr cm | rain 24hr cm | rain mn cm | humidity % | barometer mb |
| 20260504190114 | 13 | 308 | 24.1 | 35.4 | 0.00 | 0.00 | 0.00 | 29 | 1015.0 |
| 20260504184622 | 13 | 317 | 17.7 | 35.4 | 0.00 | 0.00 | 0.00 | 32 | 1015.1 |
| 20260504183056 | 13 | 297 | 16.1 | 29.0 | 0.00 | 0.00 | 0.00 | 31 | 1015.1 |
| 20260504181600 | 13 | 315 | 14.5 | 32.2 | 0.00 | 0.00 | 0.00 | 34 | 1015.2 |
| 20260504180056 | 13 | 288 | 19.3 | 29.0 | 0.00 | 0.00 | 0.00 | 33 | 1015.2 |
| 20260504174554 | 12 | 306 | 19.3 | 35.4 | 0.00 | 0.00 | 0.00 | 34 | 1015.3 |
| 20260504173055 | 13 | 300 | 22.5 | 32.2 | 0.00 | 0.00 | 0.00 | 34 | 1015.2 |
| 20260504171605 | 12 | 314 | 20.9 | 30.6 | 0.00 | 0.00 | 0.00 | 37 | 1015.2 |
| 20260504140110 | 8 | 274 | 8.0 | 12.9 | 0.00 | 0.00 | 0.00 | 60 | 1015.8 |
| 20260504120109 | 7 | 274 | 6.4 | 9.7 | 0.00 | 0.00 | 0.00 | 61 | 1015.8 |
| 20260504110105 | 7 | 255 | 1.6 | 3.2 | 0.00 | 0.00 | 0.00 | 60 | 1016.1 |
| 20260504081603 | 10 | 20 | 9.7 | 20.9 | 0.00 | 0.00 | 0.00 | 46 | 1015.1 |
| 20260504060107 | 12 | 43 | 11.3 | 25.7 | 0.00 | 0.00 | 0.00 | 35 | 1011.1 |
| 20260504044554 | 15 | 58 | 9.7 | 17.7 | 0.00 | 0.00 | 0.00 | 34 | 1009.0 |
| 20260504043101 | 15 | 44 | 12.9 | 20.9 | 0.00 | 0.00 | 0.00 | 33 | 1008.6 |
| 20260504041555 | 16 | 10 | 11.3 | 20.9 | 0.00 | 0.00 | 0.00 | 32 | 1008.5 |
| 20260504040054 | 16 | 49 | 11.3 | 20.9 | 0.00 | 0.00 | 0.00 | 31 | 1008.2 |
| 20260504034552 | 16 | 48 | 8.0 | 16.1 | 0.00 | 0.00 | 0.00 | 31 | 1007.9 |
| 20260504033108 | 16 | 56 | 9.7 | 25.7 | 0.00 | 0.00 | 0.00 | 28 | 1007.3 |
| 20260504031601 | 17 | 29 | 8.0 | 19.3 | 0.00 | 0.00 | 0.00 | 25 | 1007.0 |
| 20260504030052 | 18 | 4 | 6.4 | 11.3 | 0.00 | 0.00 | 0.00 | 22 | 1006.7 |
| 20260504024601 | 18 | 1 | 3.2 | 9.7 | 0.00 | 0.00 | 0.00 | 21 | 1006.4 |
| 20260504023054 | 20 | 359 | 4.8 | 14.5 | 0.00 | 0.00 | 0.00 | 21 | 1006.4 |
| 20260504021556 | 20 | 340 | 4.8 | 11.3 | 0.00 | 0.00 | 0.00 | 19 | 1006.3 |
| 20260504020056 | 21 | 53 | 6.4 | 20.9 | 0.00 | 0.00 | 0.00 | 19 | 1006.4 |
| 20260504014558 | 22 | 36 | 6.4 | 17.7 | 0.00 | 0.00 | 0.00 | 19 | 1006.3 |
| 20260504013109 | 23 | 22 | 11.3 | 22.5 | 0.00 | 0.00 | 0.00 | 18 | 1006.4 |
| 20260504011554 | 23 | 338 | 11.3 | 22.5 | 0.00 | 0.00 | 0.00 | 17 | 1006.2 |
| 20260504010056 | 24 | 313 | 11.3 | 20.9 | 0.00 | 0.00 | 0.00 | 17 | 1006.4 |
| 20260504004602 | 24 | 7 | 9.7 | 14.5 | 0.00 | 0.00 | 0.00 | 16 | 1006.5 |
| 20260504003054 | 25 | 304 | 11.3 | 19.3 | 0.00 | 0.00 | 0.00 | 15 | 1006.7 |
| 20260504001556 | 25 | 312 | 12.9 | 20.9 | 0.00 | 0.00 | 0.00 | 15 | 1006.8 |
| 20260503234548 | 25 | 332 | 14.5 | 22.5 | 0.00 | 0.00 | 0.00 | 15 | 1007.0 |
| 20260503233058 | 25 | 308 | 12.9 | 20.9 | 0.00 | 0.00 | 0.00 | 15 | 1007.1 |
| 20260503231555 | 24 | 316 | 11.3 | 25.7 | 0.00 | 0.00 | 0.00 | 15 | 1007.2 |
| 20260503230053 | 25 | 293 | 12.9 | 25.7 | 0.00 | 0.00 | 0.00 | 15 | 1007.3 |
| 20260503224550 | 24 | 307 | 14.5 | 22.5 | 0.00 | 0.00 | 0.00 | 16 | 1007.6 |
| 20260503223049 | 24 | 300 | 19.3 | 33.8 | 0.00 | 0.00 | 0.00 | 15 | 1007.7 |
| 20260503221555 | 24 | 281 | 8.0 | 25.7 | 0.00 | 0.00 | 0.00 | 16 | 1007.8 |
| 20260503220100 | 23 | 349 | 9.7 | 16.1 | 0.00 | 0.00 | 0.00 | 16 | 1008.1 |
| 20260503214605 | 23 | 322 | 11.3 | 22.5 | 0.00 | 0.00 | 0.00 | 15 | 1008.2 |
| 20260503213054 | 23 | 294 | 12.9 | 24.1 | 0.00 | 0.00 | 0.00 | 17 | 1008.5 |
| 20260503211603 | 23 | 309 | 8.0 | 19.3 | 0.00 | 0.00 | 0.00 | 17 | 1008.6 |
| 20260503210055 | 23 | 300 | 11.3 | 22.5 | 0.00 | 0.00 | 0.00 | 18 | 1008.9 |
| 20260503204559 | 23 | 293 | 14.5 | 27.4 | 0.00 | 0.00 | 0.00 | 18 | 1009.2 |
| 20260503203053 | 23 | 290 | 16.1 | 24.1 | 0.00 | 0.00 | 0.00 | 17 | 1009.5 |
| 20260503201552 | 22 | 289 | 11.3 | 22.5 | 0.00 | 0.00 | 0.00 | 17 | 1009.6 |
| 20260503200101 | 22 | 284 | 11.3 | 22.5 | 0.00 | 0.00 | 0.00 | 17 | 1009.7 |
| 20260503194555 | 23 | 291 | 12.9 | 20.9 | 0.00 | 0.00 | 0.00 | 19 | 1010.1 |
| 20260503193059 | 22 | 307 | 8.0 | 24.1 | 0.00 | 0.00 | 0.00 | 19 | 1010.1 |
| 20260503191551 | 22 | 304 | 14.5 | 25.7 | 0.00 | 0.00 | 0.00 | 18 | 1010.4 |